Flag for Canada Weather past 2 weeks in Whistler, British Columbia, Canada

Now
72 °F

Mild.


Feels Like: 77 °F
Forecast: 50 / 76 °F
Wind: 8 mph from South

Location: Squamish Airport

Current Time: Aug 27, 2015 at 12:24:59 PM

Latest Report: Aug 27, 2015 at 12:00 PM


Visibility: N/A

Pressure: 30.02 "Hg (27.77 "Hg at 674m altitude)

Humidity: 40%

Dew point: 47 °F

Location of WhistlerLocation

Historic Weather in Whistler — Graph

°F

Whistler temperature yesterday

Maximum temperature yesterday: 78 °F (at 4:00 PM)
Minimum temperature yesterday: 50 °F (at 6:00 AM)
Average temperature yesterday: 64 °F

Past Weeks' High & Low Weather Summary

 TemperatureHumidityPressure
High89 °F (Aug 12, 4:00 PM)99% (Aug 20, 4:00 AM)30.26 "Hg (Aug 20, 4:00 AM)
Low48 °F (Aug 25, 7:00 AM)21% (Aug 12, 1:00 PM)29.74 "Hg (Aug 19, 6:00 PM)
Average66 °F66%29.98 "Hg
* Reported Aug 12 12:00 Noon — Aug 27 11:00 AM, Whistler, Weather by CustomWeather, © 2015

Note: Actual official high and low records may vary slightly from our data, if they occured in-between our weather recording intervals... More about our weather records

Advertising

Whistler weather history for previous 24 hours

 ConditionsComfort  
Time TempWeatherWind HumidityBarometerVisibility
11:00 AM
Thu, Aug 27
73 °FMild.2 mph39%30.04 "HgN/A
10:00 AM68 °FMild.3 mph52%30.05 "HgN/A
9:00 AM64 °FMild.2 mph58%30.06 "HgN/A
8:00 AM58 °FCool.1 mph78%30.06 "HgN/A
7:00 AM53 °FCool.No wind84%30.05 "HgN/A
6:00 AM55 °FCool.2 mph80%30.03 "HgN/A
5:00 AM55 °FCool.1 mph81%30.01 "HgN/A
4:00 AM56 °FCool.1 mph79%30.02 "HgN/A
3:00 AM57 °FCool.2 mph77%30.01 "HgN/A
2:00 AM57 °FCool.1 mph78%30.00 "HgN/A
1:00 AM57 °FCool.No wind77%30.00 "HgN/A
12:00 AM59 °FCool.1 mph74%29.99 "HgN/A
11:00 PM
Wed, Aug 26
60 °FCool.1 mph72%29.99 "HgN/A
10:00 PM61 °FCool.No wind65%29.98 "HgN/A
9:00 PM64 °FMild.No wind63%29.96 "HgN/A
8:00 PM70 °FMild.2 mph50%29.94 "HgN/A
7:00 PM72 °FMild.3 mph45%29.93 "HgN/A
6:00 PM73 °FMild.7 mph43%29.93 "HgN/A
5:00 PM77 °FPleasantly warm.8 mph35%29.93 "HgN/A
4:00 PM78 °FPleasantly warm.6 mph35%29.94 "HgN/A
3:00 PM78 °FPleasantly warm.8 mph35%29.96 "HgN/A
2:00 PM75 °FMild.7 mph35%29.97 "HgN/A
1:00 PM77 °FMild.6 mph33%29.97 "HgN/A
12:00 PM72 °FMild.8 mph38%29.98 "HgN/A
Weather by CustomWeather, © 2015

See weather overviewHow to use our weather pages